STARLINK-34713, 64906

Orbit data source: Space-Track

STARLINK-34713, 64906 is a payload satellite owned by SpaceX/Seattle (US) in LEO that was launched on Sat, 26 Jul 2025 UTC via an FALCON 9 launch vehicle from the Air Force Eastern Test Range (AFETR). Payload-class satellites include a variety of spacecraft equipped with specific instruments for various scientific and technological missions. These include communications satellites like Starlink; space stations such as the ISS; scientific satellites like the Hubble; Earth observation satellites from companies like Planet Labs, Umbra, and HawkEye 360; GPS; miniature CubeSats for education and research; and military/defense satellites.

Loading next visibility...
Identifier
64906, 2025-157C
Orbit
LEO
Country
Flag of USUS
Related business
Manufacturer
SpaceX/Seattle
Mission
Operational Commercial Communications
Bus & Motor
STARLINK V2MO, Unknown motor
Mass
575 kg wet, ~530 kg dry
Launch date (UTC)
2025-07-26 (10 months ago)
Launch vehicle
FALCON 9
Launch site
Air Force Eastern Test Range (AFETR)
Object type
Payload
Rocket body
Debris
Shape & HBR
Box + 2 Pan, 17.7 m
Radar Cross Section
36.964 m², Large (>1 m²)

Expand to show TLE details & history
Last TLE update: 15 hours ago

TLE from 15 hours ago
0 STARLINK-34713
1 64906U 25157C   26145.30099843  .00016247  00000-0  55919-3 0  9991
2 64906  53.1616 349.7960 0001060  81.6878 278.4243 15.30215705 47800
Epoch: 2026-05-25T07:13Z
TLE epoch observation values (Epoch: 2026-05-25T07:13:26.264Z)
Latitude
-0.00001°
Longitude
-1.4542°
Altitude
475.962 km
Speed
7.629 km/s
True Right ascension
23h 19m 11s
True Declination
0° 00' 00"
Sunlit
Object was in daylight at epoch
Visualization orbit readout
Latitude
Unknown
Longitude
Unknown
Altitude
Unknown
Speed
Unknown
Apparent Right ascension
Unknown
Apparent Declination
Unknown
Sunlit
N/A
Visualization observer readout
Local Sidereal Time
07:05:01
Azimuth
Unknown
Elevation
Unknown
Doppler factor
Unknown
Orbital elements
Apogee altitude
476.151 km
Perigee altitude
474.698 km
Semi-major axis
6,853.561 km
Eccentricity
0.00011
Inclination
53.1616°
RAAN
349.796°
Arg. of periapsis
81.6878°
True anomaly
278.41228°
Mean anomaly
278.4243°
Eccentric anomaly
278.41829°
Mean motion
3.82533 °/min
Orbital period
94.11 mins
BSTAR
0.00055919
Loading maneuver chart data...
Computing Atmospheric mass density...
Loading historical data...
Loading historical data...
Loading historical data...
Loading historical data...
Loading historical data...
Loading historical data...
Loading historical data...

Documentation

Showing up to 5 results
|